Owatonna, MN

7:20 PM CST on December 03, 2016 (GMT -0600)
Owatonna Degner Regional

Weather History for KOWA - January, 2012

Change the Weather History Date:

Wednesday, January 18, 2012

  Actual Average Record
Temperature  
Mean Temperature 13 °F -  
Max Temperature 26 °F 22 °F 47 °F (1981)
Min Temperature 0 °F 3 °F -32 °F (1967)
Degree Days  
Heating Degree Days 52    
Moisture  
Dew Point 7 °F    
Average Humidity 77    
Maximum Humidity 92    
Minimum Humidity 67    
Precipitation  
Precipitation 0.00 in - - ()
Sea Level Pressure  
Sea Level Pressure 29.91 in    
Wind  
Wind Speed 14 mph (South)    
Max Wind Speed 28 mph    
Max Gust Speed 33 mph    
Visibility 10 miles    
Events Snow    
Averages and records for this station are not official NWS values.
T = Trace of Precipitation, MM = Missing Value Source: NWS Daily Summary

Daily Weather History Graph

Daily Weather History Graph

Search for Another Location

Airport or City:

Trip Planner

Search our weather history database for the weather conditions in past years. The results will help you decide how hot, cold, wet, or windy it might be!

Date:

Astronomy

Jan. 18, 2012 Rise Set
Actual Time 7:43 AM CST 5:03 PM CST
Civil Twilight 7:11 AM CST 5:35 PM CST
Nautical Twilight 6:35 AM CST 6:11 PM CST
Astronomical Twilight 6:01 AM CST 6:45 PM CST
Moon 3:14 AM CST (1/18) 12:41 PM CST (1/18)
Length of Visible Light 10h 24m
Length of Day
9h 20m
Waning Crescent, 24% of the Moon is Illuminated
Jan 18
Waning Crescent
Jan 23
New
Jan 30
First Quarter
Feb 7
Full
Feb 14
Last Quarter

Hourly Weather History & Observations

Time (CST) Temp. Windchill Dew Point Humidity Pressure Visibility Wind Dir Wind Speed Gust Speed Precip Events Conditions
12:14 AM 1.4 °F -11.3 °F -2.2 °F 85% 30.20 in 10.0 mi South 6.9 mph - N/A   Clear
12:34 AM 1.4 °F -9.9 °F -2.2 °F 85% 30.20 in 10.0 mi South 5.8 mph - N/A   Clear
1:14 AM -0.4 °F -10.4 °F -2.2 °F 92% 30.19 in 10.0 mi South 4.6 mph - N/A   Clear
1:34 AM 1.4 °F -11.3 °F -2.2 °F 85% 30.19 in 10.0 mi South 6.9 mph - N/A   Clear
1:54 AM 1.4 °F -11.3 °F -2.2 °F 85% 30.18 in 10.0 mi South 6.9 mph - N/A   Clear
2:34 AM 1.4 °F -12.5 °F -2.2 °F 85% 30.17 in 10.0 mi SSE 8.1 mph - N/A   Clear
2:54 AM -0.4 °F -13.4 °F -4.0 °F 85% 30.16 in 10.0 mi SSE 6.9 mph - N/A   Clear
3:14 AM 1.4 °F -11.3 °F -2.2 °F 85% 30.14 in 10.0 mi SE 6.9 mph - N/A   Clear
3:34 AM 1.4 °F -12.5 °F -2.2 °F 85% 30.14 in 10.0 mi SSE 8.1 mph - N/A   Clear
3:54 AM 3.2 °F -12.2 °F -2.2 °F 78% 30.13 in 10.0 mi SSE 10.4 mph - N/A   Clear
4:14 AM 3.2 °F -10.3 °F -2.2 °F 78% 30.12 in 10.0 mi SSE 8.1 mph - N/A   Clear
4:34 AM 3.2 °F -11.3 °F -2.2 °F 78% 30.10 in 10.0 mi SSE 9.2 mph - N/A   Clear
4:54 AM 5.0 °F -12.3 °F -0.4 °F 78% 30.07 in 10.0 mi SSE 13.8 mph - N/A   Clear
5:14 AM 5.0 °F -11.6 °F -0.4 °F 78% 30.06 in 10.0 mi SSE 12.7 mph - N/A   Clear
5:34 AM 5.0 °F -11.6 °F -0.4 °F 78% 30.05 in 10.0 mi SSE 12.7 mph - N/A   Clear
5:53 AM 5.0 °F -12.3 °F 1.4 °F 85% 30.04 in 10.0 mi SSE 13.8 mph - N/A   Clear
6:13 AM 6.8 °F -9.3 °F 1.4 °F 79% 30.05 in 10.0 mi SSE 12.7 mph - N/A   Clear
6:33 AM 6.8 °F -11.3 °F 1.4 °F 79% 30.03 in 10.0 mi SSE 16.1 mph 20.7 mph N/A   Clear
6:53 AM 6.8 °F -11.8 °F 3.2 °F 85% 30.01 in 10.0 mi SSE 17.3 mph 20.7 mph N/A   Clear
7:13 AM 8.6 °F -10.0 °F 3.2 °F 79% 30.00 in 10.0 mi SSE 18.4 mph 21.9 mph N/A   Clear
7:34 AM 8.6 °F -10.0 °F 3.2 °F 79% 29.98 in 10.0 mi SSE 18.4 mph 26.5 mph N/A   Clear
7:54 AM 8.6 °F -11.0 °F 3.2 °F 79% 29.96 in 10.0 mi SSE 20.7 mph 25.3 mph N/A   Clear
8:14 AM 8.6 °F -10.5 °F 3.2 °F 79% 29.95 in 10.0 mi SSE 19.6 mph 25.3 mph N/A   Clear
8:34 AM 8.6 °F -10.5 °F 5.0 °F 85% 29.96 in 10.0 mi South 19.6 mph 27.6 mph N/A   Clear
9:14 AM 10.4 °F -9.5 °F 6.8 °F 85% 29.94 in 10.0 mi SSE 23.0 mph 28.8 mph N/A   Clear
9:33 AM 12.2 °F -6.3 °F 6.8 °F 79% 29.93 in 10.0 mi SSE 20.7 mph 27.6 mph N/A   Clear
9:54 AM 12.2 °F -7.1 °F 6.8 °F 79% 29.91 in 10.0 mi SSE 23.0 mph 28.8 mph N/A   Clear
10:14 AM 12.2 °F -6.7 °F 6.8 °F 79% 29.90 in 10.0 mi South 21.9 mph 29.9 mph N/A   Clear
10:34 AM 15.8 °F -1.5 °F 8.6 °F 73% 29.89 in 10.0 mi SSE 20.7 mph 26.5 mph N/A   Clear
10:54 AM 15.8 °F -0.2 °F 10.4 °F 79% 29.87 in 10.0 mi South 17.3 mph 27.6 mph N/A   Clear
11:14 AM 17.6 °F 1.7 °F 10.4 °F 73% 29.85 in 10.0 mi South 18.4 mph 26.5 mph N/A   Clear
11:34 AM 21.2 °F 5.2 °F 12.2 °F 68% 29.83 in 10.0 mi South 21.9 mph 28.8 mph N/A   Clear
11:54 AM 21.2 °F 5.2 °F 12.2 °F 68% 29.82 in 10.0 mi South 21.9 mph 28.8 mph N/A   Clear
12:14 PM 23.0 °F 8.3 °F 14.0 °F 68% 29.80 in 10.0 mi South 19.6 mph 28.8 mph N/A   Clear
12:34 PM 23.0 °F 6.6 °F 14.0 °F 68% 29.79 in 10.0 mi South 25.3 mph - N/A   Clear
12:54 PM 23.0 °F 6.3 °F 14.0 °F 68% 29.77 in 10.0 mi SSW 26.5 mph 32.2 mph N/A   Clear
1:14 PM 24.8 °F 9.3 °F 15.8 °F 69% 29.75 in 10.0 mi South 24.2 mph 31.1 mph N/A   Clear
1:34 PM 24.8 °F 9.3 °F 15.8 °F 69% 29.74 in 10.0 mi SSW 24.2 mph 33.4 mph N/A   Clear
2:14 PM 24.8 °F 9.0 °F 15.8 °F 69% 29.71 in 10.0 mi South 25.3 mph 31.1 mph N/A   Scattered Clouds
2:34 PM 24.8 °F 10.3 °F 17.6 °F 74% 29.71 in 10.0 mi SSW 20.7 mph 27.6 mph N/A   Scattered Clouds
2:54 PM 24.8 °F 10.0 °F 17.6 °F 74% 29.71 in 10.0 mi SSW 21.9 mph 27.6 mph N/A   Mostly Cloudy
3:14 PM 26.6 °F 13.4 °F 17.6 °F 69% 29.69 in 10.0 mi SSW 18.4 mph 23.0 mph N/A   Scattered Clouds
3:34 PM 26.6 °F 12.7 °F 17.6 °F 69% 29.70 in 10.0 mi SSW 20.7 mph 27.6 mph N/A   Clear
3:54 PM 26.6 °F 13.4 °F 17.6 °F 69% 29.71 in 10.0 mi SSW 18.4 mph 24.2 mph N/A   Clear
4:14 PM 26.6 °F 13.4 °F 17.6 °F 69% 29.69 in 10.0 mi SSW 18.4 mph 23.0 mph N/A   Clear
4:54 PM 24.8 °F 13.4 °F 17.6 °F 74% 29.70 in 10.0 mi SSW 12.7 mph - N/A   Clear
5:14 PM 24.8 °F 13.4 °F 17.6 °F 74% 29.70 in 10.0 mi SW 12.7 mph - N/A   Scattered Clouds
5:34 PM 26.6 °F 15.2 °F 17.6 °F 69% 29.68 in 10.0 mi SSW 13.8 mph - N/A   Mostly Cloudy
6:14 PM 26.6 °F 14.3 °F 19.4 °F 74% 29.70 in 10.0 mi SW 16.1 mph 21.9 mph N/A   Mostly Cloudy
6:34 PM 26.6 °F 14.3 °F 19.4 °F 74% 29.71 in 7.0 mi WSW 16.1 mph 21.9 mph N/A Snow Light Snow
6:54 PM 23.0 °F 7.6 °F 19.4 °F 86% 29.73 in 1.8 mi WNW 21.9 mph 28.8 mph N/A Snow Light Snow
7:14 PM 19.4 °F 1.4 °F 15.8 °F 86% 29.75 in 1.8 mi West 26.5 mph 32.2 mph N/A Snow Light Snow
7:34 PM 15.8 °F -3.1 °F 8.6 °F 73% 29.76 in 10.0 mi WNW 25.3 mph 28.8 mph N/A Snow Light Snow
7:54 PM 12.2 °F -8.6 °F 5.0 °F 73% 29.79 in 10.0 mi West 27.6 mph 33.4 mph N/A   Mostly Cloudy
8:14 PM 8.6 °F -10.0 °F 1.4 °F 73% 29.80 in 10.0 mi WNW 18.4 mph 32.2 mph N/A   Scattered Clouds
8:33 PM 8.6 °F -11.0 °F -0.4 °F 67% 29.82 in 10.0 mi West 20.7 mph 29.9 mph N/A   Clear
8:53 PM 6.8 °F -12.9 °F -0.4 °F 72% 29.83 in 10.0 mi WNW 19.6 mph 29.9 mph N/A   Clear
9:14 PM 5.0 °F -16.7 °F -2.2 °F 72% 29.84 in 10.0 mi West 23.0 mph - N/A   Clear
9:34 PM 3.2 °F -19.0 °F -2.2 °F 78% 29.85 in 10.0 mi WNW 23.0 mph 31.1 mph N/A   Clear
9:54 PM 3.2 °F -18.6 °F -4.0 °F 72% 29.86 in 10.0 mi WNW 21.9 mph 27.6 mph N/A   Clear
10:14 PM 1.4 °F -17.6 °F -5.8 °F 72% 29.86 in 10.0 mi WNW 15.0 mph 26.5 mph N/A   Clear
10:34 PM 1.4 °F -18.2 °F -5.8 °F 72% 29.87 in 10.0 mi WNW 16.1 mph - N/A   Clear
10:54 PM 1.4 °F -15.3 °F -5.8 °F 72% 29.88 in 10.0 mi WNW 11.5 mph - N/A   Clear
11:14 PM 1.4 °F -17.6 °F -5.8 °F 72% 29.88 in 10.0 mi WNW 15.0 mph 19.6 mph N/A   Clear
11:34 PM 1.4 °F -18.8 °F -5.8 °F 72% 29.89 in 10.0 mi NW 17.3 mph - N/A   Clear
11:53 PM 1.4 °F -21.0 °F -7.6 °F 66% 29.90 in 10.0 mi NW 21.9 mph 26.5 mph N/A   Clear